Time,TemperatureF,DewpointF,PressureIn,WindDirection,WindDirectionDegrees,WindSpeedMPH,WindSpeedGustMPH,Humidity,HourlyPrecipIn,Conditions,Clouds,dailyrainin,SoftwareType,DateUTC
2013-01-12 00:02:00,15.0,11.0,-100.00,WNW,295,3.0,5.0,83,-99.99,,,-99.99,,2013-01-12 08:02:00,
2013-01-12 00:10:00,13.0,9.0,-100.00,NW,315,0.0,1.0,83,-99.99,,,-99.99,,2013-01-12 08:10:00,
2013-01-12 01:02:00,13.0,9.0,-100.00,NW,315,0.0,1.0,83,-99.99,,,-99.99,,2013-01-12 09:02:00,
2013-01-12 02:02:00,11.0,7.0,-100.00,NNW,335,0.0,3.0,83,-99.99,,,-99.99,,2013-01-12 10:02:00,
2013-01-12 02:10:00,10.0,7.0,-100.00,NNE,20,1.0,2.0,87,-99.99,,,-99.99,,2013-01-12 10:10:00,
2013-01-12 02:11:00,11.0,7.0,-100.00,NNW,335,0.0,3.0,83,-99.99,,,-99.99,,2013-01-12 10:11:00,
2013-01-12 03:02:00,10.0,7.0,-100.00,NNE,20,1.0,2.0,87,-99.99,,,-99.99,,2013-01-12 11:02:00,
2013-01-12 04:02:00,10.0,6.0,-100.00,West,280,0.0,2.0,83,-99.99,,,-99.99,,2013-01-12 12:02:00,
2013-01-12 04:12:00,10.0,6.0,-100.00,West,280,0.0,2.0,83,-99.99,,,-99.99,,2013-01-12 12:12:00,
2013-01-12 05:02:00,9.0,6.0,-100.00,NNW,340,2.0,3.0,87,-99.99,,,-99.99,,2013-01-12 13:02:00,
2013-01-12 05:10:00,8.0,5.0,-100.00,WSW,250,1.0,2.0,87,-99.99,,,-99.99,,2013-01-12 13:10:00,
2013-01-12 06:02:00,8.0,5.0,-100.00,WSW,250,1.0,2.0,87,-99.99,,,-99.99,,2013-01-12 14:02:00,
2013-01-12 07:03:00,8.0,5.0,-100.00,NNW,330,0.0,1.0,87,-99.99,,,-99.99,,2013-01-12 15:03:00,
2013-01-12 07:10:00,8.0,5.0,-100.00,North,360,1.0,1.0,87,-99.99,,,-99.99,,2013-01-12 15:10:00,
2013-01-12 07:12:00,8.0,5.0,-100.00,NNW,330,0.0,1.0,87,-99.99,,,-99.99,,2013-01-12 15:12:00,
2013-01-12 08:03:00,8.0,5.0,-100.00,North,360,1.0,1.0,87,-99.99,,,-99.99,,2013-01-12 16:03:00,
2013-01-12 09:02:00,9.0,5.0,-100.00,NNW,330,1.0,2.0,83,-99.99,,,-99.99,,2013-01-12 17:02:00,
2013-01-12 09:12:00,9.0,5.0,-100.00,NNW,330,1.0,2.0,83,-99.99,,,-99.99,,2013-01-12 17:12:00,
2013-01-12 09:20:00,14.0,11.0,-100.00,NNW,345,1.0,2.0,87,-99.99,,,-99.99,,2013-01-12 17:20:00,
2013-01-12 10:02:00,14.0,11.0,-100.00,NNW,345,1.0,2.0,87,-99.99,,,-99.99,,2013-01-12 18:02:00,
2013-01-12 10:10:00,21.0,15.0,-100.00,NW,305,1.0,2.0,77,-99.99,,,-99.99,,2013-01-12 18:10:00,
2013-01-12 10:12:00,14.0,11.0,-100.00,NNW,345,1.0,2.0,87,-99.99,,,-99.99,,2013-01-12 18:12:00,
2013-01-12 11:03:00,21.0,15.0,-100.00,NW,305,1.0,2.0,77,-99.99,,,-99.99,,2013-01-12 19:03:00,
2013-01-12 12:02:00,25.0,12.0,-100.00,NW,310,3.0,3.0,57,-99.99,,,-99.99,,2013-01-12 20:02:00,
2013-01-12 12:12:00,25.0,12.0,-100.00,NW,310,3.0,3.0,57,-99.99,,,-99.99,,2013-01-12 20:12:00,
2013-01-12 13:02:00,30.0,12.0,-100.00,SSE,155,1.0,2.0,46,-99.99,,,-99.99,,2013-01-12 21:02:00,
2013-01-12 13:10:00,27.0,12.0,-100.00,ESE,120,2.0,5.0,52,-99.99,,,-99.99,,2013-01-12 21:10:00,
2013-01-12 14:02:00,27.0,12.0,-100.00,ESE,120,2.0,5.0,52,-99.99,,,-99.99,,2013-01-12 22:02:00,
2013-01-12 15:02:00,26.0,13.0,-100.00,SE,145,6.0,9.0,57,-99.99,,,-99.99,,2013-01-12 23:02:00,
2013-01-12 15:10:00,25.0,13.0,-100.00,SSE,150,3.0,6.0,59,-99.99,,,-99.99,,2013-01-12 23:10:00,
2013-01-12 15:12:00,26.0,13.0,-100.00,SE,145,6.0,9.0,57,-99.99,,,-99.99,,2013-01-12 23:12:00,
2013-01-12 16:03:00,25.0,13.0,-100.00,SSE,150,3.0,6.0,59,-99.99,,,-99.99,,2013-01-13 00:03:00,
2013-01-12 17:02:00,23.0,12.0,-100.00,SW,230,1.0,1.0,62,-99.99,,,-99.99,,2013-01-13 01:02:00,
2013-01-12 17:12:00,23.0,12.0,-100.00,SW,230,1.0,1.0,62,-99.99,,,-99.99,,2013-01-13 01:12:00,
2013-01-12 18:02:00,18.0,10.0,-100.00,NE,50,0.0,1.0,70,-99.99,,,-99.99,,2013-01-13 02:02:00,
2013-01-12 18:10:00,18.0,11.0,-100.00,WNW,300,3.0,10.0,73,-99.99,,,-99.99,,2013-01-13 02:10:00,
2013-01-12 19:02:00,18.0,11.0,-100.00,WNW,300,3.0,10.0,73,-99.99,,,-99.99,,2013-01-13 03:02:00,
2013-01-12 20:02:00,15.0,9.0,-100.00,NW,320,2.0,3.0,76,-99.99,,,-99.99,,2013-01-13 04:02:00,
2013-01-12 20:10:00,15.0,9.0,-100.00,NW,310,3.0,5.0,76,-99.99,,,-99.99,,2013-01-13 04:10:00,
2013-01-12 20:12:00,15.0,9.0,-100.00,NW,320,2.0,3.0,76,-99.99,,,-99.99,,2013-01-13 04:12:00,
2013-01-12 21:03:00,15.0,9.0,-100.00,NW,310,3.0,5.0,76,-99.99,,,-99.99,,2013-01-13 05:03:00,
2013-01-12 22:02:00,13.0,8.0,-100.00,NNW,335,1.0,6.0,80,-99.99,,,-99.99,,2013-01-13 06:02:00,
2013-01-12 22:12:00,13.0,8.0,-100.00,NNW,335,1.0,6.0,80,-99.99,,,-99.99,,2013-01-13 06:12:00,
2013-01-12 22:20:00,11.0,7.0,-100.00,North,355,2.0,5.0,83,-99.99,,,-99.99,,2013-01-13 06:20:00,
2013-01-12 23:02:00,11.0,7.0,-100.00,North,355,2.0,5.0,83,-99.99,,,-99.99,,2013-01-13 07:02:00,
2013-01-12 23:10:00,12.0,8.0,-100.00,NW,305,5.0,8.0,83,-99.99,,,-99.99,,2013-01-13 07:10:00,
2013-01-12 23:12:00,11.0,7.0,-100.00,North,355,2.0,5.0,83,-99.99,,,-99.99,,2013-01-13 07:12:00,